Flag for Turkey Weather past 2 weeks in Samsun, Turkey

Now
43 °F

Clear.


Feels Like: 39 °F
Forecast: 32 / 46 °F
Wind: 7 mph from South

Location: Samsun / Carsamba

Current Time: Dec 21, 2014 at 4:50:29 AM

Latest Report: Dec 21, 2014 at 3:50 AM


Visibility: 10 mi

Pressure: 30.09 "Hg

Humidity: 71%

Dew point: 34 °F

Location of SamsunLocation

Historic Weather in Samsun — Graph

°F

Samsun temperature yesterday

Maximum temperature yesterday: 61 °F (at 12:50 PM)
Minimum temperature yesterday: 43 °F (at 11:50 PM)
Average temperature yesterday: 50 °F

Past Weeks' High & Low Weather Summary

 TemperatureHumidityPressure
High72 °F (Dec 7, 11:50 AM)100% (Dec 6, 7:50 AM)30.36 "Hg (Dec 6, 7:50 AM)
Low30 °F (Dec 17, 5:50 AM)33% (Dec 7, 11:50 AM)29.83 "Hg (Dec 9, 11:50 AM)
Average51 °F80%30.12 "Hg
* Reported Dec 6 3:50 AM — Dec 21 3:50 AM, Samsun, Weather by CustomWeather, © 2014

Note: Actual official high and low records may vary slightly from our data, if they occured in-between our weather recording intervals... More about our weather records

Advertising

Samsun weather history for previous 24 hours

 ConditionsComfort  
Time TempWeatherWind HumidityBarometerVisibility
3:50 AM
Dec 21
43 °FClear.7 mph71%30.09 "Hg10 mi
2:50 AM41 °FClear.6 mph81%30.09 "Hg10 mi
1:50 AM43 °FPassing clouds.8 mph71%30.09 "HgN/A
12:50 AM41 °FPassing clouds.3 mph81%30.09 "HgN/A
11:50 PM
Dec 20
43 °FClear.5 mph76%30.12 "Hg10 mi
10:50 PM45 °FClear.6 mph71%30.12 "Hg10 mi
9:50 PM50 °FClear.7 mph58%30.12 "Hg10 mi
8:50 PM50 °FPassing clouds.6 mph58%30.12 "HgN/A
7:50 PM52 °FClear.9 mph58%30.12 "Hg10 mi
6:50 PM48 °FClear.3 mph82%30.12 "Hg10 mi
5:50 PM48 °FClear.2 mph82%30.12 "Hg10 mi
4:50 PM52 °FClear.6 mph72%30.12 "Hg10 mi
3:50 PM55 °FPassing clouds.3 mph67%30.12 "HgN/A
2:50 PM57 °FSunny.6 mph67%30.12 "Hg10 mi
1:50 PM61 °FSunny.2 mph52%30.09 "Hg10 mi
12:50 PM61 °FPassing clouds.5 mph59%30.12 "HgN/A
11:50 AM59 °FSunny.2 mph55%30.12 "Hg10 mi
10:50 AM57 °FSunny.2 mph63%30.15 "Hg10 mi
9:50 AM54 °FSunny.6 mph77%30.18 "Hg10 mi
8:50 AM48 °FPassing clouds.3 mph94%30.18 "HgN/A
7:50 AM46 °FPassing clouds.7 mph93%30.18 "HgN/A
6:50 AM45 °FPassing clouds.8 mph100%30.18 "HgN/A
5:50 AM45 °FPassing clouds.5 mph100%30.21 "Hg5 mi
4:50 AM46 °FPartly cloudy.6 mph93%30.21 "Hg5 mi
Weather by CustomWeather, © 2014

See weather overviewHow to use our weather pages